FW0655 Weather Reports


Display with metric or nautical units.
time (UTC)temp
F
wind
direction
speed
MPH
gust
MPH
rain 1hr
in
rain 24hr
in
rain mn
in
humidity
%
barometer
mb
20260508034541 46 140 1.0 3.0 0.00 0.00 0.00 71 1010.8
20260508033042 46 140 0.0 2.0 0.00 0.00 0.00 70 1010.6
20260508031541 46 139 1.0 3.0 0.00 0.00 0.00 69 1010.4
20260508030046 46 138 0.0 2.0 0.00 0.00 0.00 69 1010.3
20260508024552 46 138 1.0 2.0 0.00 0.00 0.00 67 1010.1
20260508023039 46 138 0.0 2.0 0.00 0.00 0.00 65 1009.6
20260508021537 46 138 1.0 3.0 0.00 0.00 0.00 68 1009.7
20260508020042 47 13 0.0 3.0 0.00 0.00 0.00 69 1009.6
20260508014537 47 13 1.0 2.0 0.00 0.00 0.00 68 1009.6
20260508013038 48 13 0.0 2.0 0.00 0.00 0.00 67 1009.2
20260508011548 49 13 0.0 2.0 0.00 0.00 0.00 65 1009.2
20260508010036 49 13 1.0 2.0 0.00 0.00 0.00 64 1009.1
20260508004550 50 13 1.0 2.0 0.00 0.00 0.00 60 1009.1
20260508003039 51 13 0.0 3.0 0.00 0.00 0.00 55 1009.0
20260508001539 51 13 1.0 3.0 0.00 0.00 0.00 53 1008.8
20260508000033 51 14 1.0 5.0 0.00 0.00 0.00 53 1008.7
20260507234534 52 22 3.0 5.0 0.00 0.00 0.00 51 1008.6
20260507233033 52 347 2.0 5.0 0.00 0.00 0.00 51 1008.4
20260507231534 53 5 2.0 9.0 0.00 0.00 0.00 50 1008.4
20260507230036 53 5 4.0 8.0 0.00 0.00 0.00 49 1008.4
20260507224535 53 346 2.0 10.0 0.00 0.00 0.00 50 1008.4
20260507223030 53 360 3.0 9.0 0.00 0.00 0.00 47 1008.3
20260507221529 53 350 2.0 8.0 0.00 0.00 0.00 49 1008.3
20260507220031 53 34 4.0 10.0 0.00 0.00 0.00 48 1008.4
20260507214528 54 13 4.0 11.0 0.00 0.00 0.00 47 1008.3
20260507213032 55 9 7.0 12.0 0.00 0.00 0.00 46 1008.5
20260507211527 55 331 1.0 6.0 0.00 0.00 0.00 46 1008.4
20260507210026 55 21 5.0 11.0 0.00 0.00 0.00 46 1008.4
20260507204526 55 273 3.0 9.0 0.00 0.00 0.00 47 1008.4
20260507203025 54 25 6.0 12.0 0.00 0.00 0.00 46 1008.5
20260507201524 53 336 3.0 6.0 0.00 0.00 0.00 47 1008.6
20260507200032 54 24 5.0 12.0 0.00 0.00 0.00 45 1008.6
20260507194522 54 345 5.0 14.0 0.00 0.02 0.00 47 1008.8
20260507193026 54 42 6.0 11.0 0.00 0.02 0.00 46 1008.9
20260507191519 54 326 3.0 6.0 0.00 0.02 0.00 45 1009.0
20260507190032 54 312 2.0 13.0 0.00 0.02 0.00 45 1009.2
20260507184525 56 307 3.0 8.0 0.00 0.03 0.00 43 1009.1
20260507183019 53 28 3.0 16.0 0.00 0.03 0.00 47 1009.3
20260507181513 53 350 3.0 9.0 0.00 0.03 0.00 46 1009.5
20260507180014 54 350 6.0 12.0 0.00 0.03 0.00 46 1009.8
20260507174512 53 349 4.0 8.0 0.00 0.03 0.00 51 1009.9
20260507173014 53 322 3.0 10.0 0.00 0.03 0.00 50 1009.9
20260507171509 53 11 4.0 10.0 0.00 0.03 0.00 47 1009.9
20260507170012 52 321 3.0 9.0 0.00 0.03 0.00 49 1010.2
20260507164517 53 350 7.0 11.0 0.00 0.04 0.00 47 1010.2
20260507163006 54 192 2.0 7.0 0.00 0.04 0.00 47 1010.4
20260507161509 53 219 1.0 6.0 0.00 0.04 0.00 49 1010.7
20260507160003 53 294 2.0 10.0 0.00 0.06 0.00 50 1010.8
20260507154501 53 235 2.0 7.0 0.00 0.06 0.00 48 1010.8
20260507153059 52 355 3.0 9.0 0.00 0.06 0.00 52 1011.2
20260507153002 52 18 3.0 9.0 0.00 0.06 0.00 52 1011.2
20260507151558 53 239 3.0 6.0 0.00 0.06 0.00 51 1011.4
20260507150056 51 13 3.0 6.0 0.00 0.06 0.00 48 1011.5
20260507144557 51 284 4.0 9.0 0.00 0.09 0.00 53 1011.8
20260507143050 51 215 3.0 6.0 0.00 0.09 0.00 55 1011.8
20260507141554 49 349 2.0 6.0 0.00 0.09 0.00 56 1011.9
20260507140106 49 53 1.0 4.0 0.00 0.09 0.00 56 1012.0
20260507134544 48 341 2.0 5.0 0.00 0.15 0.00 62 1012.1
20260507133042 46 360 6.0 12.0 0.00 0.15 0.00 66 1012.2
20260507131540 46 9 2.0 5.0 0.00 0.15 0.00 69 1012.1
20260507130048 46 298 1.0 5.0 0.00 0.15 0.00 73 1012.1
20260507124540 44 355 1.0 4.0 0.00 0.25 0.00 78 1012.2
20260507123038 43 283 1.0 3.0 0.00 0.25 0.00 84 1012.3
20260507121540 42 307 2.0 5.0 0.00 0.25 0.00 87 1012.2
20260507120033 41 215 1.0 3.0 0.00 0.25 0.00 90 1012.1
20260507114530 40 190 1.0 3.0 0.00 0.27 0.00 91 1012.0
20260507113034 37 190 0.0 1.0 0.00 0.27 0.00 90 1012.2
20260507111529 36 190 1.0 3.0 0.00 0.27 0.00 90 1011.9
20260507110028 36 190 1.0 3.0 0.00 0.27 0.00 89 1011.9
20260507104526 36 190 1.0 3.0 0.00 0.28 0.00 88 1011.8
20260507103024 36 190 0.0 2.0 0.00 0.28 0.00 88 1011.7
20260507101532 36 190 0.0 2.0 0.00 0.28 0.00 88 1011.6
20260507100030 37 190 3.0 5.0 0.00 0.28 0.00 87 1011.4
20260507094522 38 332 1.0 3.0 0.00 0.28 0.00 86 1011.5
20260507093033 38 332 1.0 2.0 0.00 0.28 0.00 86 1011.4
20260507091513 39 332 0.0 3.0 0.00 0.28 0.00 86 1011.5
20260507090012 40 332 1.0 3.0 0.00 0.28 0.00 84 1011.6
20260507084506 41 333 1.0 3.0 0.00 0.30 0.00 84 1011.6
20260507083004 42 332 0.0 2.0 0.00 0.30 0.00 83 1011.7
20260507081501 42 332 0.0 2.0 0.00 0.30 0.00 83 1011.6
20260507080135 42 332 1.0 2.0 0.00 0.30 0.00 83 1011.5
20260507074605 43 332 0.0 0.0 0.00 0.30 0.00 83 1011.4
20260507073111 43 332 0.0 2.0 0.00 0.30 0.00 83 1011.3
20260507071609 43 333 1.0 4.0 0.00 0.30 0.00 83 1011.6
20260507070057 43 360 0.0 4.0 0.00 0.30 0.00 82 1011.7
20260507064558 43 302 1.0 5.0 0.00 0.30 0.00 82 1011.4
20260507063055 44 326 3.0 5.0 0.00 0.30 0.00 82 1011.4
20260507061550 44 25 3.0 8.0 0.00 0.30 0.00 83 1011.1
20260507060047 45 349 3.0 10.0 0.00 0.30 0.00 86 1011.0
20260507054551 45 338 4.0 12.0 0.00 0.30 0.00 89 1010.9
20260507053046 45 338 2.0 6.0 0.00 0.30 0.00 91 1010.7
20260507051540 45 248 0.0 1.0 0.00 0.30 0.00 91 1010.8
20260507050039 45 248 0.0 2.0 0.00 0.30 0.00 91 1010.6
20260507044539 45 248 1.0 3.0 0.00 0.30 0.00 91 1010.8
20260507043040 45 248 1.0 2.0 0.00 0.30 0.00 90 1010.7
20260507041535 44 331 2.0 3.0 0.00 0.30 0.00 90 1010.5
20260507040035 44 331 0.0 3.0 0.00 0.30 0.00 90 1010.3